Satellite: ASTRA 1B
Catalog number: 21139
Epoch time:      102364.00000000
Element set:     156 
Inclination:        0.0122 deg
RA of node:       319.8851 deg
Eccentricity:    0.0002995
Arg of perigee:    65.1991 deg
Mean anomaly:      92.3752 deg
Mean motion:    1.00273184 rev/day
Decay rate:    1.2799E-006 rev/day^2
Epoch rev:            3168
Checksum:              255

Satellite: METEOSAT 5 (MO
Catalog number: 21140
Epoch time:      103001.79588238
Element set:     659 
Inclination:        5.5239 deg
RA of node:        70.2571 deg
Eccentricity:    0.0001079
Arg of perigee:   154.6659 deg
Mean anomaly:     225.7305 deg
Mean motion:    1.00278351 rev/day
Decay rate:    1.3999E-007 rev/day^2
Epoch rev:            4557
Checksum:              307

Satellite: NOAA 12
Catalog number: 21263
Epoch time:      103003.98620598
Element set:     919 
Inclination:       98.6208 deg
RA of node:       354.4007 deg
Eccentricity:    0.0013076
Arg of perigee:   150.8839 deg
Mean anomaly:     209.3071 deg
Mean motion:   14.25046785 rev/day
Decay rate:    3.8099E-006 rev/day^2
Epoch rev:           60472
Checksum:              322

Satellite: OSCAR 22 (UoSA
Catalog number: 21575
Epoch time:      103003.20305201
Element set:     691 
Inclination:       98.1365 deg
RA of node:       357.6791 deg
Eccentricity:    0.0006396
Arg of perigee:   276.0022 deg
Mean anomaly:      84.0433 deg
Mean motion:   14.39119579 rev/day
Decay rate:    4.0800E-006 rev/day^2
Epoch rev:           60161
Checksum:              396

Satellite: METEOR 3-5
Catalog number: 21655
Epoch time:      103001.96413223
Element set:     490 
Inclination:       82.5577 deg
RA of node:        72.5042 deg
Eccentricity:    0.0012894
Arg of perigee:   322.3703 deg
Mean anomaly:      37.6516 deg
Mean motion:   13.16977571 rev/day
Decay rate:    5.1000E-007 rev/day^2
Epoch rev:           54721
Checksum:              288

Satellite: UARS
Catalog number: 21701
Epoch time:      103003.13173729
Element set:     790 
Inclination:       56.9806 deg
RA of node:       219.9922 deg
Eccentricity:    0.0006790
Arg of perigee:   114.0586 deg
Mean anomaly:     246.1112 deg
Mean motion:   15.02749549 rev/day
Decay rate:    7.5699E-006 rev/day^2
Epoch rev:           61873
Checksum:              320

Satellite: EUTELSAT 2-F3
Catalog number: 21803
Epoch time:      102364.03689237
Element set:     504 
Inclination:        2.4714 deg
RA of node:        89.6383 deg
Eccentricity:    0.0002540
Arg of perigee:   211.8649 deg
Mean anomaly:     191.4787 deg
Mean motion:    1.00269107 rev/day
Decay rate:    1.3400E-006 rev/day^2
Epoch rev:            3649
Checksum:              287

Satellite: INMARSAT 2-F3
Catalog number: 21814
Epoch time:      103003.50717557
Element set:     593 
Inclination:        1.6569 deg
RA of node:        56.7915 deg
Eccentricity:    0.0002049
Arg of perigee:   245.8004 deg
Mean anomaly:     200.6811 deg
Mean motion:    1.00267788 rev/day
Decay rate:    1.1099E-006 rev/day^2
Epoch rev:            4043
Checksum:              283

Satellite: INMARSAT 2-F4
Catalog number: 21940
Epoch time:      103002.32444389
Element set:     561 
Inclination:        2.3599 deg
RA of node:        18.4893 deg
Eccentricity:    0.0002289
Arg of perigee:   249.2273 deg
Mean anomaly:      59.5600 deg
Mean motion:    1.00266746 rev/day
Decay rate:   -3.5200E-006 rev/day^2
Epoch rev:            3920
Checksum:              285

Satellite: EUTELSAT 2-F4
Catalog number: 22028
Epoch time:      102365.09071760
Element set:     311 
Inclination:        1.5937 deg
RA of node:        93.1263 deg
Eccentricity:    0.0005707
Arg of perigee:   208.0581 deg
Mean anomaly:     178.4586 deg
Mean motion:    1.00271830 rev/day
Decay rate:   -9.4000E-007 rev/day^2
Epoch rev:            3128
Checksum:              271

Satellite: OSCAR 23 (KITS
Catalog number: 22077
Epoch time:      103002.22174896
Element set:     144 
Inclination:       66.0864 deg
RA of node:       224.8821 deg
Eccentricity:    0.0014747
Arg of perigee:   284.4874 deg
Mean anomaly:      75.4507 deg
Mean motion:   12.86407130 rev/day
Decay rate:   -3.7000E-007 rev/day^2
Epoch rev:           48821
Checksum:              303

Satellite: ASTRA 1C
Catalog number: 22653
Epoch time:      102364.00000000
Element set:     782 
Inclination:        0.0122 deg
RA of node:       319.8851 deg
Eccentricity:    0.0002995
Arg of perigee:    65.1991 deg
Mean anomaly:      92.3588 deg
Mean motion:    1.00273184 rev/day
Decay rate:    1.2799E-006 rev/day^2
Epoch rev:            3038
Checksum:              265

Satellite: METEOR 2-21
Catalog number: 22782
Epoch time:      103003.32243431
Element set:     482 
Inclination:       82.5489 deg
RA of node:       251.5753 deg
Eccentricity:    0.0023611
Arg of perigee:   114.1910 deg
Mean anomaly:     246.1750 deg
Mean motion:   13.83526809 rev/day
Decay rate:    1.6699E-006 rev/day^2
Epoch rev:           47169
Checksum:              305

Satellite: KITSAT B
Catalog number: 22825
Epoch time:      103003.53772057
Element set:     453 
Inclination:       98.2792 deg
RA of node:        35.5733 deg
Eccentricity:    0.0009301
Arg of perigee:    40.1624 deg
Mean anomaly:     320.0244 deg
Mean motion:   14.28925449 rev/day
Decay rate:    1.7800E-006 rev/day^2
Epoch rev:           48330
Checksum:              278

Satellite: POSAT 1
Catalog number: 22826
Epoch time:      103003.64516150
Element set:     293 
Inclination:       98.2812 deg
RA of node:        36.7685 deg
Eccentricity:    0.0009796
Arg of perigee:    38.1417 deg
Mean anomaly:     322.0453 deg
Mean motion:   14.29146506 rev/day
Decay rate:    1.7099E-006 rev/day^2
Epoch rev:           48336
Checksum:              313

Satellite: ITAMSAT
Catalog number: 22828
Epoch time:      103004.12646402
Element set:     393 
Inclination:       98.2751 deg
RA of node:        37.4888 deg
Eccentricity:    0.0010625
Arg of perigee:    16.7328 deg
Mean anomaly:     343.4200 deg
Mean motion:   14.29491582 rev/day
Decay rate:    1.4199E-006 rev/day^2
Epoch rev:           45163
Checksum:              298

Satellite: EYESAT A
Catalog number: 22829
Epoch time:      103003.51393524
Element set:     416 
Inclination:       98.2789 deg
RA of node:        37.4904 deg
Eccentricity:    0.0010398
Arg of perigee:    19.0201 deg
Mean anomaly:     341.1373 deg
Mean motion:   14.29742475 rev/day
Decay rate:    2.5100E-006 rev/day^2
Epoch rev:           48347
Checksum:              291

Satellite: METEOSAT 6
Catalog number: 22912
Epoch time:      103002.78904515
Element set:     619 
Inclination:        2.5619 deg
RA of node:        82.6410 deg
Eccentricity:    0.0001015
Arg of perigee:   137.6720 deg
Mean anomaly:     175.0913 deg
Mean motion:    1.00267436 rev/day
Decay rate:    6.0999E-007 rev/day^2
Epoch rev:            3182
Checksum:              277

Satellite: GOES 8
Catalog number: 23051
Epoch time:      103003.79297115
Element set:     545 
Inclination:        0.1859 deg
RA of node:       106.9126 deg
Eccentricity:    0.0002307
Arg of perigee:   189.0245 deg
Mean anomaly:      17.5103 deg
Mean motion:    1.00262409 rev/day
Decay rate:   -2.4900E-006 rev/day^2
Epoch rev:            3934
Checksum:              260

Satellite: ASTRA 1D
Catalog number: 23331
Epoch time:      103001.92365742
Element set:     797 
Inclination:        0.0606 deg
RA of node:       207.8620 deg
Eccentricity:    0.0004882
Arg of perigee:    23.6325 deg
Mean anomaly:     226.3824 deg
Mean motion:    1.00273040 rev/day
Decay rate:    1.4199E-006 rev/day^2
Epoch rev:            3039
Checksum:              363

Satellite: RADIO ROSTO
Catalog number: 23439
Epoch time:      103003.43978922
Element set:     672 
Inclination:       64.8140 deg
RA of node:       116.0743 deg
Eccentricity:    0.0148180
Arg of perigee:   124.2421 deg
Mean anomaly:     237.2637 deg
Mean motion:   11.27548341 rev/day
Decay rate:   -4.1000E-007 rev/day^2
Epoch rev:           33039
Checksum:              273

Satellite: NOAA 14
Catalog number: 23455
Epoch time:      103004.02311413
Element set:     473 
Inclination:       99.1883 deg
RA of node:        21.3917 deg
Eccentricity:    0.0009407
Arg of perigee:     2.2397 deg
Mean anomaly:     357.8815 deg
Mean motion:   14.13278715 rev/day
Decay rate:    1.7400E-006 rev/day^2
Epoch rev:           41304
Checksum:              279

Satellite: HIMAWARI 5 (GM
Catalog number: 23522
Epoch time:      103002.59720346
Element set:     35 
Inclination:        1.6425 deg
RA of node:        83.0001 deg
Eccentricity:    0.0000976
Arg of perigee:    99.8851 deg
Mean anomaly:     274.1430 deg
Mean motion:    1.00274591 rev/day
Decay rate:   -2.8100E-006 rev/day^2
Epoch rev:            2842
Checksum:              259

Satellite: HOT BIRD 1
Catalog number: 23537
Epoch time:      102364.09542247
Element set:     531 
Inclination:        0.1178 deg
RA of node:        62.3444 deg
Eccentricity:    0.0060331
Arg of perigee:   260.0229 deg
Mean anomaly:     182.7219 deg
Mean motion:    1.00272908 rev/day
Decay rate:    9.0999E-007 rev/day^2
Epoch rev:            2846
Checksum:              282

Satellite: GOES 9
Catalog number: 23581
Epoch time:      103003.74930693
Element set:     456 
Inclination:        0.3954 deg
RA of node:       277.3228 deg
Eccentricity:    0.0008377
Arg of perigee:   225.9623 deg
Mean anomaly:     110.3853 deg
Mean motion:    1.00030292 rev/day
Decay rate:    3.1999E-007 rev/day^2
Epoch rev:            2790
Checksum:              299

